TimeCST,TemperatureF,Dew PointF,Humidity,Sea Level PressureIn,VisibilityMPH,Wind Direction,Wind SpeedMPH,Gust SpeedMPH,PrecipitationIn,Events,Conditions,WindDirDegrees,DateUTC
12:53 AM,37.0,30.0,76,29.82,10.0,WSW,9.2,-,N/A,,Clear,250,2013-02-04 06:53:00
1:53 AM,35.1,28.9,78,29.81,10.0,West,6.9,-,N/A,,Clear,260,2013-02-04 07:53:00
2:53 AM,30.9,27.0,85,29.83,10.0,WNW,5.8,-,N/A,,Clear,290,2013-02-04 08:53:00
4:53 AM,36.0,26.1,67,29.87,10.0,North,10.4,-,N/A,,Clear,360,2013-02-04 10:53:00
5:53 AM,32.0,25.0,75,29.91,10.0,North,12.7,-,N/A,,Clear,350,2013-02-04 11:53:00
6:53 AM,32.0,25.0,75,29.94,10.0,NNW,12.7,-,N/A,,Clear,340,2013-02-04 12:53:00
7:29 AM,30.2,24.8,80,29.93,10.0,North,13.8,71.3,N/A,,Clear,350,2013-02-04 13:29:00
7:42 AM,32.0,24.8,75,29.93,10.0,North,13.8,-,N/A,,Clear,350,2013-02-04 13:42:00
7:53 AM,32.0,25.0,75,29.97,10.0,North,13.8,-,N/A,,Clear,350,2013-02-04 13:53:00
8:53 AM,36.0,27.0,70,29.98,10.0,NW,3.5,-,N/A,,Clear,320,2013-02-04 14:53:00
9:53 AM,39.9,28.0,63,29.99,10.0,NNW,10.4,-,N/A,,Clear,330,2013-02-04 15:53:00
10:53 AM,43.0,28.0,56,30.00,10.0,North,12.7,-,N/A,,Clear,360,2013-02-04 16:53:00
11:53 AM,46.0,28.9,51,30.01,10.0,North,9.2,-,N/A,,Clear,360,2013-02-04 17:53:00
12:53 PM,46.9,28.0,48,29.98,10.0,NNE,9.2,-,N/A,,Clear,20,2013-02-04 18:53:00
1:53 PM,48.9,28.9,46,29.97,10.0,Variable,6.9,-,N/A,,Clear,0,2013-02-04 19:53:00
2:53 PM,46.9,28.9,50,29.96,10.0,ENE,4.6,-,N/A,,Clear,70,2013-02-04 20:53:00
3:53 PM,50.0,28.0,43,29.94,10.0,Calm,Calm,-,N/A,,Clear,0,2013-02-04 21:53:00
4:53 PM,48.9,28.9,46,29.91,10.0,East,5.8,-,N/A,,Clear,100,2013-02-04 22:53:00
5:53 PM,42.1,30.0,62,29.92,10.0,SE,8.1,-,N/A,,Clear,130,2013-02-04 23:53:00
6:53 PM,37.9,28.9,70,29.96,10.0,ESE,9.2,-,N/A,,Clear,110,2013-02-05 00:53:00
7:53 PM,35.1,28.9,78,29.96,10.0,SE,12.7,-,N/A,,Clear,130,2013-02-05 01:53:00
8:53 PM,34.0,28.9,82,29.94,10.0,SSE,12.7,-,N/A,,Clear,150,2013-02-05 02:53:00
9:53 PM,33.1,28.0,82,29.93,10.0,South,9.2,-,N/A,,Clear,170,2013-02-05 03:53:00
10:53 PM,33.1,28.0,82,29.91,10.0,South,13.8,-,N/A,,Clear,180,2013-02-05 04:53:00
11:53 PM,35.1,28.9,78,29.89,10.0,South,12.7,-,N/A,,Clear,190,2013-02-05 05:53:00